Location: Kailua
(21.4020°N, 157.7390°W)
Time: 01:05:44
(UTC-10:00)

Daily predictions for brighter satellites

Satellite Brightness Start Highest point End
(mag) Time Altitude Azimuth Time Altitude Azimuth Time Altitude Azimuth
ATLAS 2AS CENTAUR R/B 3.9 02:09:39 10° NNW 02:15:23 42° NNE 02:15:23 42° NNE
ATLAS CENTAUR R/B 4.2 02:47:45 20° NE 02:47:45 20° NE 02:49:27 10° NE
Cosmos 1697 Rocket 4.5 02:49:18 26° ENE 02:49:18 26° ENE 02:52:37 10° NE
Cosmos 1980 Rocket 4.3 02:54:22 18° E 02:54:22 18° E 02:57:49 10° ENE
ATLAS CENTAUR R/B 4.4 02:56:12 40° SE 02:57:24 42° ESE 03:12:46 10° NE
CZ-3 R/B 4.2 01:55:35 10° SW 02:58:01 69° SSE 03:10:02 10° ENE
Cosmos 2227 Rocket 4.1 03:01:27 10° NNE 03:06:06 26° ENE 03:10:13 12° ESE
CZ-2D R/B 3.3 03:05:30 10° NNE 03:08:53 40° NNE 03:08:53 40° NNE
ARIANE 5 R/B 4.2 03:09:13 10° N 03:11:31 27° N 03:11:31 27° N
Cosmos 2297 Rocket 4.0 03:23:35 10° N 03:28:22 28° ENE 03:33:08 10° SE
Delta 7925 Rocket 4.2 03:32:31 48° NNE 03:32:31 48° NNE 03:36:49 10° ENE
GEOS 3 Rocket 3.9 03:36:22 39° ESE 03:38:12 64° ENE 03:43:20 10° NNW
Mugunghwa Rocket 4.0 03:38:55 61° NW 03:39:52 72° NNE 03:46:09 10° E
IRS-1C Rocket 4.2 03:34:59 10° NNE 03:40:06 67° E 03:40:06 67° E
Cosmos 44 4.3 03:38:47 10° NNW 03:41:55 38° N 03:41:55 38° N
Delta 128 4.1 03:58:44 50° SE 03:58:44 50° SE 04:03:07 10° E
CZ-4B R/B 3.1 03:56:39 10° NNE 04:02:10 81° ESE 04:03:33 52° S
Cosmos 2142 Rocket 4.4 04:00:47 46° S 04:02:49 89° E 04:08:59 10° N
SL-16 R/B 2.7 04:04:59 48° W 04:04:59 48° W 04:10:35 10° NNW
Resurs 1-4 Rocket 3.7 04:02:35 10° NNW 04:05:20 21° NW 04:05:20 21° NW
SWIFT 2.4 04:09:32 68° ESE 04:09:32 68° ESE 04:13:18 10° E
Okean O Rocket 1.9 04:04:55 10° N 04:08:41 54° NW 04:08:41 54° NW
Cosmos 2150 Rocket 3.8 04:07:18 10° NNW 04:12:26 66° WSW 04:13:11 58° SSW
Cosmos 858 Rocket 4.3 04:08:21 10° NNW 04:13:35 73° WSW 04:15:35 38° S
Cosmos 1470 4.3 04:13:19 19° SE 04:15:28 34° E 04:19:03 10° NNE
CZ-2C R/B 3.8 04:16:36 17° SSE 04:20:20 81° ENE 04:25:03 10° N
FUSE 4.3 04:18:53 30° WNW 04:21:22 60° N 04:26:38 10° E
Milstar 3 Cent rocket 3.5 04:17:51 21° WNW 04:21:39 51° N 04:31:46 10° ENE
Cosmos 1758 3.8 04:22:12 45° WNW 04:22:12 45° WNW 04:25:34 10° N
Cosmos 990 Rocket 4.2 04:18:14 10° N 04:23:29 72° ENE 04:28:42 10° SSE
ATLAS CENTAUR R/B 3.8 04:24:06 15° NW 04:24:06 15° NW 04:26:44 10° NNW
Cosmos 1743 Rocket 4.5 04:19:56 10° N 04:24:07 47° E 04:28:18 10° SSE
Cosmos 2279 Rocket 4.1 04:19:26 17° S 04:24:24 80° E 04:30:40 10° N
Orbus 7S 3.3 04:27:57 46° NNW 04:28:24 54° NNE 04:32:37 10° E
Cosmos 1953 3.2 04:30:25 33° WNW 04:30:25 33° WNW 04:33:30 10° NNW
MOZ.5/SAFIR/RUBIN 5/SL-8 3.7 04:26:49 11° S 04:31:28 86° WSW 04:36:12 10° NNW
Cosmos 1697 Rocket 3.9 04:31:05 23° WNW 04:31:33 23° WNW 04:35:58 10° NNW
CZ-4B DEB 4.4 04:28:15 10° N 04:33:36 52° WNW 04:35:55 32° SW
Cosmos 1898 Rocket 4.0 04:29:31 10° NW 04:34:23 36° W 04:35:08 35° WSW
Cosmos 1655 Rocket 4.4 04:28:27 10° N 04:34:48 67° E 04:41:08 10° SSE
GPS 2-05 Rocket1 4.1 04:36:40 25° SSE 04:36:40 25° SSE 04:38:15 10° SE
Cosmos 2082 4.0 04:30:40 10° NW 04:35:51 40° WSW 04:38:44 23° SSW
Cosmos 1980 Rocket 2.9 04:36:10 31° WSW 04:37:41 36° WNW 04:42:49 10° N
Cosmos 1076 Rocket 4.1 04:34:58 10° NNW 04:38:53 35° W 04:39:02 35° W
SL-8 R/B 3.9 04:36:28 10° NW 04:41:13 72° NE 04:45:57 10° SE
Cosmos 1544 3.3 04:41:52 42° WSW 04:42:29 47° W 04:46:03 10° N
Okean-O 2.5 04:41:01 10° N 04:45:26 76° WNW 04:48:32 19° SSW
Cosmos 2322 Rocket 2.2 04:41:48 17° SSW 04:46:14 86° ESE 04:51:52 10° NNE
Cosmos 1766 Rocket 4.3 04:44:19 10° NNW 04:48:16 32° W 04:49:24 28° WSW
In-Cosmos 22 4.0 04:43:19 10° NNW 04:48:33 66° W 04:53:48 10° S
Cosmos 332 Rocket 3.8 04:46:22 26° SW 04:48:55 57° WNW 04:53:38 10° N
Cosmos 1408 Rocket 4.4 04:45:33 10° NNW 04:49:18 28° W 04:49:55 27° WSW
Cosmos-2242 4.5 04:49:46 20° W 04:49:46 20° W 04:52:51 10° NNW
Thor Agena Rocket 3.4 04:44:38 10° S 04:49:42 75° WSW 04:54:44 10° NNW
Cosmos 2227 Rocket 3.1 04:45:18 10° NW 04:49:57 27° WSW 04:51:44 22° SW
Cosmos 2221 3.8 04:46:28 10° SSE 04:50:29 41° E 04:54:29 10° NNE
SEDSat Delta rocket 3.4 04:46:40 13° WNW 04:51:15 83° SSW 04:57:05 10° ESE
Cosmos 1937 Rocket 4.1 04:48:43 10° NW 04:53:20 33° W 04:57:59 10° SSW
Meteor 1-31 Rocket 3.8 04:50:41 10° NNE 04:54:26 46° E 04:58:09 10° S
Cosmos 1842 Rocket 4.2 04:56:07 22° SW 04:58:20 37° W 05:02:28 10° NNW
SL-24 R/B - RUBIN 2 4.3 04:57:08 20° SW 05:00:46 58° WNW 05:06:38 10° NNE
Meteor PRIRODA 3.8 05:03:44 10° N 05:07:18 54° WNW 05:10:43 11° SSW
Aureole 1 Rocket 3.9 05:04:30 17° SW 05:07:54 45° WNW 05:13:43 10° N
Cosmos 1437 3.1 05:05:08 10° NNW 05:08:18 45° W 05:11:30 10° SSW
PSLV R/B 4.2 05:06:31 10° N 05:10:21 35° WNW 05:13:42 13° SW
Cosmos 371 Rocket 3.5 05:06:55 13° SSW 05:11:07 50° WNW 05:15:47 10° N
GPS 2-12 Rocket1 3.6 05:08:32 17° SW 05:11:43 46° SSE 05:16:08 10° E
Cosmos 2297 Rocket 3.2 05:07:43 10° NW 05:12:09 24° WSW 05:16:36 10° SSW
SL-16 R/B 2.5 05:10:44 11° SW 05:16:03 51° WNW 05:21:34 10° N
Cosmos 1538 Rocket 4.0 05:14:38 10° SSW 05:19:47 66° WNW 05:25:02 10° N
OAO 3 Rocket 3.1 05:15:29 10° WNW 05:20:11 85° NNE 05:24:51 10° ESE
Cosmos 2026 Rocket 4.5 05:16:42 10° NNW 05:22:28 39° W 05:28:10 10° SSW
Cosmos 1733 4.2 05:20:20 10° SW 05:23:30 27° W 05:26:45 10° NNW
ADEOS II 2.6 05:19:58 10° N 05:24:50 39° WNW 05:29:40 10° SW
Aurora 2 Rocket 2.9 05:21:57 10° WNW 05:25:13 48° N 05:29:23 10° E
Delta 7925 Rocket 3.3 05:22:29 10° WNW 05:27:26 79° NNE 05:32:03 10° ESE
Elektron 1 3.7 05:25:31 10° SSW 05:28:33 89° E 05:31:41 10° NNE
NOAA 6 4.0 05:23:30 10° N 05:28:36 75° WNW 05:33:42 10° SSW
Cosmos 2322 4.2 05:24:12 10° S 05:29:49 65° ESE 05:35:29 10° NNE
NOSS 3-4 (A) 4.0 05:23:29 10° NW 05:30:34 56° WSW 05:37:57 10° S
NOSS 3-4 (C) 4.0 05:23:36 10° NW 05:30:43 57° WSW 05:38:08 10° S
Cosmos 2228 Rocket 4.2 05:28:30 10° SSE 05:32:44 48° E 05:37:01 10° NNE
DELTA 2 R/B (1) 3.8 05:27:49 10° WSW 05:33:20 64° NW 05:38:53 10° NE
Centaur D-1AR AC-41 2.8 05:30:17 10° WSW 05:34:02 69° SSE 05:39:12 10° E
CSL-04 Rocket 4.2 05:29:47 10° NNE 05:35:17 65° ESE 05:40:44 10° S
Mugunghwa Rocket 4.2 05:29:24 10° W 05:35:27 50° SSW 05:41:39 10° SE
MOS 1 Rocket 3.4 05:32:37 10° N 05:37:38 84° W 05:42:19 10° SSW
Maqsat-H 4.4 05:34:46 10° SSW 05:39:46 20° SSE 05:52:47 10° ESE
Meteor 2-1 Rocket 4.3 05:34:15 10° SSW 05:39:58 64° W 05:45:35 10° N
XTE 3.2 05:36:59 10° W 05:40:04 70° N 05:43:08 10° E
Intelsat 5-1 Rocket 3.8 05:34:07 10° WSW 05:50:55 78° SSE 05:56:10 10° E
